GFSNIL_con_mucape_000.txt.gz
CAPE
1963 2019 2412 1542 281 566 14 0 0 0 0 0 0 0 0 0 0 0 10 46 28 0
2317 2329 2905 500 163 83 0 0 0 0 0 0 0 0 0 0 0 0 0 0 18 2
2324 2725 1925 16 51 12 0 0 0 0 0 0 0 0 0 0 0 0 0 0 0 28
2105 2384 278 0 0 0 0 0 0 0 0 0 0 0 0 0 0 0 0 32 49 42
1694 1955 714 1 1 8 25 9 0 0 0 0 0 0 0 0 0 0 11 46 45 69
1356 1616 993 36 11 29 53 0 0 0 0 3 0 0 0 0 0 0 3 31 46 56
1338 1473 941 95 96 18 8 0 0 0 0 0 0 0 0 0 0 0 11 41 69 37
1338 1288 972 268 62 61 50 46 31 1 0 0 0 0 0 0 8 22 71 80 51 21
1178 1160 553 54 268 189 379 274 133 68 8 9 4 12 0 30 44 89 93 78 25 0
1146 1095 821 216 5 281 522 290 124 100 39 39 93 79 42 54 82 82 64 28 6 10
1234 1104 496 234 8 355 105 21 48 95 102 84 171 184 122 159 99 60 75 52 27 11
1209 1131 841 232 13 162 304 80 104 186 191 147 173 210 240 90 164 65 37 54 29 6
1227 969 581 274 113 110 217 339 195 189 208 146 194 246 127 127 94 82 41 1 0 0
1220 1058 470 229 191 261 270 286 141 94 6 19 66 86 188 120 159 75 2 0 0 0

GFSNIL_con_mucape_006.txt.gz
CAPE
3890 3180 2890 2737 1625 965 608 365 565 1715 732 359 284 263 32 0 8 26 33 35 117 39
4051 3564 2995 2780 2548 1487 1270 361 1054 1165 699 196 326 82 33 0 10 8 12 12 38 119
3240 3448 3241 3103 3211 2468 1799 1473 945 848 365 254 190 61 96 9 7 6 0 0 4 65
2923 3007 3396 3342 3438 3033 2585 1627 1121 881 401 302 225 148 188 129 0 1 2 0 62 211
2894 2988 3197 3882 3274 2691 2794 1400 1129 751 443 672 218 209 303 189 7 11 0 32 165 324
2825 2997 3226 3346 2877 2917 1749 904 468 433 674 713 561 292 345 386 321 116 32 108 245 311
2999 2822 2979 2890 1830 1332 815 401 117 286 332 173 447 640 622 349 427 205 70 220 324 492
3146 3073 2775 2415 1479 1260 446 382 0 93 72 135 490 198 570 374 231 248 302 371 478 622
3274 3069 2810 2241 1201 1208 838 537 337 179 107 12 147 0 0 122 309 385 551 710 892 1004
3183 2849 2361 1728 1361 1266 1127 871 556 387 261 171 399 30 5 33 172 389 667 978 987 794
2817 2548 2163 1985 1343 1038 1115 1122 888 503 337 270 409 296 198 60 420 835 1084 966 770 631
2413 2201 1694 1541 1475 1393 1102 1013 853 749 643 608 716 488 330 211 585 852 992 703 545 430
2247 2207 1897 1691 1709 1467 1184 866 677 755 734 596 1297 579 400 167 670 1016 573 276 437 211
2147 2211 2352 1967 1726 1517 1079 987 1020 838 863 1043 469 926 354 70 591 299 376 393 975 388

GFSNIL_con_mucape_009.txt.gz
CAPE
4634 2667 2278 2864 2057 1178 831 919 2825 1735 1309 810 342 410 335 51 13 191 46 12 434 11
4635 4468 2722 3297 3714 1995 2157 904 880 1505 1203 898 231 401 205 34 337 63 73 118 507 138
4383 4664 4472 4732 4276 3271 2594 2445 2066 1888 1389 817 759 878 538 444 377 215 41 4 317 512
3896 4054 4551 4433 4247 4223 3343 3271 2343 2432 1923 1007 813 759 941 500 174 413 621 521 173 380
4308 4219 4103 4569 4569 4281 3780 3527 2689 2351 1862 1081 588 202 871 548 365 128 175 209 644 337
3920 4309 4229 4576 4450 4455 4345 3692 2478 2362 2035 1102 1005 1051 1098 1050 579 324 392 338 753 572
4082 4124 4084 4527 4473 4552 4152 3932 2687 2284 1722 1313 1026 1019 939 978 936 1151 962 861 824 913
4381 4294 4316 4285 4631 4406 4157 3669 2501 2123 1427 1209 599 389 1089 668 490 933 842 649 566 891
4720 4588 4581 4622 4695 4222 3631 3065 2265 1224 721 400 146 118 156 489 192 1133 1130 920 1275 1351
4993 4914 4916 4580 4139 3554 2716 2492 1810 986 615 486 595 440 328 202 273 738 1117 1487 1178 1086
4955 4924 4791 4212 3573 2786 2433 2257 1519 1049 925 823 733 476 294 217 294 791 907 1405 1710 1808
4258 4152 3910 3305 3020 2480 2170 1978 1059 1167 973 949 1111 500 357 220 642 831 1511 1645 1642 1311
4083 3732 3242 3071 2962 2519 2472 1851 1196 1000 1076 1133 1316 624 315 280 438 778 1261 1428 1770 689
3270 3388 3170 2751 2881 2527 2297 1782 1440 1053 1435 1622 1508 1188 649 668 565 877 959 1224 989 768

GFSNIL_con_mucape_012.txt.gz
CAPE
3529 3528 3173 3250 2976 2743 2081 1701 1972 1854 1707 1843 1138 1161 1308 1068 450 748 636 234 622 509
3861 3674 3372 3066 2999 3253 2385 2829 1762 1720 2108 1474 1266 1279 1496 440 486 820 1036 924 670 457
4133 3678 3188 3223 3425 2469 2968 2328 2327 2116 1883 1536 1180 864 1108 395 910 572 635 501 686 598
4025 3984 3467 3889 3287 3529 2771 2495 2463 2168 1822 1597 1127 1119 914 601 388 569 541 477 604 507
4049 4016 3976 3434 3886 3328 3862 3017 2365 2265 2000 1646 752 1123 609 371 213 728 655 627 628 477
3813 3970 3893 4037 3448 4161 3578 3099 2320 2370 2038 1742 772 983 651 478 570 603 241 444 564 404
3651 3748 3658 3868 4068 3745 3846 3278 3063 2362 2099 1875 928 757 552 737 820 723 437 831 736 676
3815 3728 3800 3767 4122 4015 3951 3870 3494 2930 2296 2041 1031 710 890 897 846 897 649 1245 806 839
3585 3951 3777 3976 3921 4231 4165 4220 3741 3141 2232 1909 1016 480 396 732 832 995 686 1001 1194 932
3542 3947 4053 3976 4032 4279 4297 4194 3698 3328 2319 1834 1074 424 244 295 695 459 644 1384 1191 1067
4112 4296 4220 4221 4249 4432 4360 3985 3478 2717 2576 1892 1324 556 344 344 365 390 702 980 1305 1078
5033 4793 4762 4742 4681 4495 3799 3069 3033 2637 2170 1547 1107 777 778 420 310 278 597 932 844 1033
5021 4950 4888 4790 4364 3421 3431 3192 2731 1723 2080 1453 905 836 592 620 488 304 766 1099 981 577
4917 4957 4833 4538 3296 3039 3335 2622 1701 1985 1573 923 747 1303 855 676 658 901 1025 925 891 1029

GFSNIL_con_mucape_015.txt.gz
CAPE
2340 1719 1260 1416 2061 1680 1606 1506 1383 1073 853 667 43 601 276 213 94 99 22 54 9 0
1898 2269 2046 1963 2044 1814 1555 1669 1432 907 675 511 341 74 401 280 68 226 98 0 0 0
2354 2033 2053 2477 2092 2099 1443 1561 1240 1124 773 742 509 196 469 201 176 28 157 107 51 0
2767 2549 2101 2476 2538 1709 1853 1233 1167 1095 1062 710 530 371 445 249 107 153 19 58 0 98
3015 2990 2618 2267 2293 2204 1700 1719 1448 1081 1271 1100 685 369 419 317 161 31 195 18 10 1
2928 3178 3068 2580 2383 2611 2345 1859 1616 1499 1155 1090 849 526 423 327 176 137 68 162 30 17
3019 2990 3085 3042 2393 2594 2994 2541 1945 1514 1327 1170 964 730 485 406 303 98 224 236 269 198
3075 3084 3147 3072 3158 2641 2671 3075 2678 2309 1908 1561 1237 947 762 534 317 239 331 280 237 107
2960 3067 3125 3226 3186 3366 3046 2947 2996 2653 2287 1951 1681 1535 1313 1003 469 504 517 337 509 363
2803 3023 3066 3174 3145 3371 3483 3325 3399 3222 2934 2422 2210 1891 1620 1470 733 529 510 508 517 657
2821 2811 3153 3178 3297 3218 3589 3499 3549 3400 3257 2920 2852 2579 2188 1733 1148 563 523 462 586 525
2580 2925 3109 3347 3298 3394 3526 3664 3500 3312 3009 3010 2956 2385 1979 1408 886 583 404 226 414 560
2387 2894 3346 3423 3429 3670 3698 3570 3367 3418 3232 2869 2156 1525 1098 691 505 315 355 345 248 345
3391 3826 3703 3890 3920 3815 3238 3314 3206 3150 2802 2057 1472 1182 667 413 653 714 578 371 340 266

GFSNIL_con_mucape_018.txt.gz
CAPE
1306 1113 959 801 851 1354 1427 1514 1320 1349 1146 990 730 517 56 43 25 26 2 2 6 0
1414 1199 1144 1253 1414 1582 1471 1342 1287 1326 1381 1184 854 364 132 130 59 74 28 0 5 0
1571 1654 1472 1512 1291 1513 1611 1477 1208 1431 1561 1041 729 428 284 165 164 78 80 21 0 0
1443 1364 1826 1798 1599 1530 1632 1538 1349 1281 1196 912 679 575 507 282 182 129 9 51 24 0
1984 1741 1552 1643 1893 1976 1899 1554 1410 1454 1339 951 797 700 597 391 200 141 18 0 65 23
2297 2196 2016 1737 1664 1883 2043 1746 1491 1485 1219 1108 960 822 700 484 310 171 99 44 4 0
2544 2414 2356 2180 1933 1845 1894 2139 1694 1549 1502 1445 1289 1180 1067 915 768 525 242 13 77 35
2553 2640 2590 2523 2271 2019 2012 1990 2038 1646 1591 1525 1403 1363 1302 1205 1037 739 595 352 107 126
2709 2648 2656 2783 2720 2453 2177 2426 2359 2158 1921 1779 1740 1739 1691 1642 1415 1117 1006 656 273 145
2879 2809 2744 2725 2813 2910 2772 2539 2668 2884 3031 2868 2612 2407 2188 1916 1778 1525 1389 1241 424 231
2925 2864 2822 2857 2903 2893 3008 2965 2823 2640 2797 2933 2850 2505 2659 2294 2478 2463 1792 1470 572 332
2872 2764 2844 2822 2927 2958 3053 3136 3143 3200 3163 2974 2624 2476 3038 2840 2637 2001 1589 1028 444 537
2749 2702 2767 2875 2892 2959 3038 3118 3228 3346 3391 3081 2614 2729 2899 2801 1974 1300 662 397 537 453
2654 2668 2674 2902 2956 3075 3070 3197 3232 3330 3397 2918 3161 3367 2331 1468 976 652 282 277 467 428

GFSNIL_con_mucape_021.txt.gz
CAPE
956 875 791 762 740 602 1148 1390 1405 1475 1236 1141 960 569 459 28 4 3 1 0 0 0
915 926 881 884 911 860 916 1296 1470 1461 1356 1250 1135 775 651 146 30 31 0 0 0 0
968 948 969 987 990 812 902 1159 1232 1418 1443 1252 1160 1000 802 261 36 23 12 0 0 0
1068 1082 1097 1077 1029 950 1184 1331 1346 1304 1406 1134 1073 1224 904 368 198 52 56 16 0 0
1170 1235 1197 1119 1131 979 1153 1345 1517 1506 1429 1237 1229 1410 901 591 524 375 110 5 13 0
1138 1164 1291 1388 1296 1230 1276 1464 1278 1414 1429 1227 1279 1317 961 759 705 659 434 105 15 0
1433 1347 1212 1280 1404 1452 1497 1533 1604 1550 1418 1529 1476 1359 1125 1019 859 783 748 622 391 160
1654 1662 1606 1482 1362 1349 1423 1526 1542 1692 1697 1506 1484 1548 1484 1408 1260 1199 1068 874 673 490
1874 1912 1916 1887 1767 1627 1523 1531 1556 1535 1605 1735 1691 1600 1574 1576 1515 1420 1392 1299 1070 901
1879 2069 2136 2092 2067 1975 1866 1755 1726 1732 1696 1795 2008 1743 1655 1583 1592 1716 1666 1619 1327 1145
2104 2072 2198 2263 2279 2217 2087 2017 1944 1921 1879 1857 1952 1942 1954 2094 2401 2429 2157 1778 1611 1433
2441 2347 2268 2304 2344 2400 2311 2227 2221 2109 2158 2264 2292 2492 2922 2981 2948 2426 2528 2407 1456 1407
2550 2538 2467 2408 2381 2385 2475 2424 2393 2463 2465 2504 2521 2628 2774 2845 2555 2820 2869 1928 1526 794
2641 2629 2551 2488 2457 2551 2568 2689 2690 2605 2644 2901 3026 2920 2610 2731 2824 2827 2258 1268 691 412

GFSNIL_con_mucape_024.txt.gz
CAPE
449 404 478 486 444 555 807 1056 1140 1235 1222 1093 1173 936 727 304 90 0 0 0 0 0
495 449 534 639 614 567 684 910 971 1088 1250 1182 1261 1073 836 434 344 7 1 0 0 0
526 518 524 664 784 719 674 820 936 1077 1293 1311 1375 1209 1061 708 603 120 14 9 0 0
712 637 608 663 775 825 776 804 877 1027 1223 1266 1390 1344 1225 894 800 354 12 11 0 0
895 792 730 703 748 816 857 933 959 889 1130 1117 1263 1458 1222 1051 1005 611 256 148 0 0
986 901 844 796 781 840 941 1006 987 841 1090 1249 1363 1403 1274 1099 1216 926 591 567 445 155
1059 1016 1026 962 940 896 979 1030 1072 1085 1361 1474 1522 1464 1402 1202 1403 1229 870 792 737 619
1055 1089 1138 1216 1174 1107 1043 1084 1151 1006 1162 1324 1325 1458 1494 1354 1432 1348 1160 1004 976 1017
1204 1183 1151 1135 1281 1309 1306 1275 1245 1262 1098 1375 1431 1305 1427 1634 1653 1489 1518 1545 1474 1359
1399 1442 1418 1366 1244 1225 1238 1345 1397 1410 1335 1281 1496 1616 1559 1583 1672 1672 1656 1678 1660 1688
1603 1666 1663 1675 1573 1458 1363 1296 1339 1405 1478 1382 1368 1477 1575 1647 1777 1832 1786 1753 2011 1924
1739 1808 1838 1881 1877 1839 1723 1546 1516 1495 1569 1616 1529 1499 1518 1566 1950 2041 1971 2407 2600 2257
1847 1829 1926 2035 2090 2060 2004 1841 1730 1656 1723 1816 1823 1672 1710 1744 1973 2087 2431 2843 2841 2291
2067 2052 1964 2090 2276 2324 2350 2164 1870 1825 1813 1972 2036 1915 1868 2049 2267 2501 2784 2592 2571 1911

GFSNIL_con_mucape_027.txt.gz
CAPE
2170 1763 1861 1921 1440 1398 1357 1481 2016 2238 2257 2198 2063 1778 1395 1197 829 416 453 421 216 193
1956 1950 1825 2033 2140 1468 2137 1486 1925 2290 2386 2372 2083 1796 1374 938 725 364 422 365 314 152
1736 1863 1908 2007 2010 2020 2149 2156 1951 2323 2423 2396 2146 1848 1574 1237 783 535 341 220 322 275
1727 1754 1900 1921 2001 2089 2255 2320 2319 2321 2303 2305 2183 1860 1684 1540 1022 712 688 340 360 367
1912 1872 1832 1903 1973 2081 2215 2194 2522 2465 2357 2231 2190 2003 1736 1659 1203 949 851 639 434 387
2031 1928 1910 1941 2036 2141 2196 2253 2047 2418 2577 2267 2091 2076 1825 1814 1641 1154 1076 829 602 512
2105 2066 2012 2052 2140 2157 2279 2267 2364 2514 2665 2430 2082 2043 1831 1792 1822 1538 1269 1032 773 636
2239 2292 2302 2222 2225 2262 2374 2269 2396 2489 2587 2460 2049 1777 1922 1827 1838 1725 1523 1324 1093 872
2390 2452 2398 2374 2354 2386 2385 2354 2488 2532 2589 2592 2054 1457 1260 1567 1905 1787 1989 1824 1427 1207
2299 2461 2474 2435 2483 2427 2474 2417 2484 2466 2545 2610 2617 1317 1196 1175 2062 1881 2138 2043 1877 1511
2112 2367 2458 2548 2539 2594 2571 2560 2567 2531 2539 2594 2555 1428 1115 1210 1862 2260 2243 2076 1907 1683
2182 2413 2536 2513 2543 2551 2623 2711 2733 2683 2713 2641 2711 1487 1303 1175 1571 2205 2247 2136 1875 1669
2554 2591 2656 2715 2746 2690 2633 2676 2645 2802 2802 2273 2777 1634 1373 1338 1926 2186 1967 2069 1804 1831
2852 2908 2785 2529 2857 3106 2989 2901 2893 2855 2831 2783 2311 2517 1475 1514 2086 2172 2000 1910 1436 1890

GFSNIL_con_mucape_030.txt.gz
CAPE
3809 2356 2419 2813 1913 1764 1455 1621 1759 2305 2509 2660 2674 2881 2769 2649 2256 1739 1551 876 494 58
3667 3487 2300 3333 3196 2102 2851 1737 1832 1992 2521 2496 2683 2794 2892 2525 2378 1488 1526 851 830 307
3316 3751 3570 3724 3772 3336 2836 2787 2282 2181 2333 2466 2710 3006 3067 2545 2394 2051 1370 771 540 754
2857 3023 3321 3482 3680 3756 3082 3571 3013 3072 2550 2399 2801 3062 3194 3077 2413 2358 1929 1362 729 873
3443 3308 3041 3425 3498 3710 3723 3456 3790 3340 3251 2792 2659 2986 3010 3008 2399 2489 2232 1981 1515 889
3006 2878 3407 3640 3522 3691 3779 3844 2722 3498 3946 3357 3026 3288 3016 2919 2978 2625 2557 2289 2047 1490
3397 3367 3377 3631 3635 3695 3824 3900 3854 3700 4175 3794 3190 2984 2699 2720 2940 2997 2637 2590 2331 1922
3466 3647 3655 3701 3699 3705 3909 3798 3987 3954 4050 4097 3123 2551 3566 3408 3076 3428 2937 2739 2589 2282
3641 3886 3808 3817 3804 3933 3892 3910 3974 3903 4053 4080 3067 1998 1807 2615 3219 3733 3771 3240 2791 2536
3754 3895 3949 3989 4034 3969 3915 3973 4032 3987 4011 4151 4043 2025 1711 1660 2947 3607 3635 3449 3220 2739
3732 3928 4155 4188 4113 4086 4041 3974 4092 4037 4095 4145 4075 2592 1824 1523 2767 3683 3765 3584 3556 3885
3670 3410 3551 4120 4098 4067 3845 3665 3693 3554 4120 4375 4226 2707 2318 1735 2572 2936 3985 3671 3512 3594
3786 3781 3705 4092 4230 4088 3938 3556 3107 3511 3910 3417 4265 3137 2410 2069 2261 2849 2715 3804 3971 2227
3875 4040 4038 4341 4302 4240 4067 3624 4045 3715 3696 4075 3877 3799 2662 2107 2631 2757 2788 2551 2831 2827

GFSNIL_con_mucape_033.txt.gz
CAPE
4292 2773 2367 2769 1536 1275 1167 1141 2760 3858 3465 3433 3530 3310 4009 3024 2711 2842 1998 1412 1375 187
4188 4034 3007 3303 3564 2521 2690 1331 2928 3542 3601 3579 3578 3862 4082 2681 3537 3026 2374 2098 1701 704
4210 4301 4018 4118 4237 3249 3415 3617 3627 3149 3271 3471 3765 3927 4317 3227 3633 3546 1986 1008 2194 1899
4000 4060 4269 3952 4196 4174 4186 4402 3761 4087 3664 3708 3792 3985 4382 3978 3703 3624 3309 2489 2464 2153
4021 4010 4049 4225 4028 4308 4407 4201 4405 4284 4201 3972 3808 3980 4255 3998 2588 3707 3201 2626 2695 1960
3963 4052 3973 4144 4210 4172 4353 4402 4196 4284 4471 4324 3948 4019 4410 4289 3990 3784 3670 3464 3331 2717
4052 3975 4042 4122 4333 4276 4383 4392 4329 4275 4403 4410 4297 4028 4109 4185 4195 3988 3799 3715 3664 3426
3998 4198 4253 4212 4289 4333 4384 4357 4407 4369 4378 4566 4398 3585 4064 3864 3998 4138 4172 3966 3914 3728
4127 4351 4424 4436 4380 4538 4434 4476 4467 4464 4380 4376 4091 2830 2490 3152 3961 4130 4318 4211 4130 3848
4188 4393 4522 4572 4605 4527 4524 4534 4520 4471 4529 4479 4476 3022 2303 2177 3789 4117 4033 4326 4294 3920
4125 4356 4573 4683 4633 4650 4632 4592 4594 4599 4656 4632 4514 3521 2679 2114 2993 3735 3929 4072 4258 4310
4196 4345 4526 4574 4610 4644 4610 4605 4555 4610 4724 4717 4575 3588 3226 2565 2671 3202 3552 3735 4154 4213
4444 4475 4533 4624 4762 4739 4690 4567 4299 4481 4632 4293 4683 3958 3354 2960 2907 3106 3276 3593 4079 3077
4465 4647 4572 4655 4783 4828 4759 4430 4637 4525 4569 4636 4349 4524 3538 3139 3310 3152 3156 3255 3414 3749

GFSNIL_con_mucape_036.txt.gz
CAPE
3268 2685 1733 3106 1533 1198 1643 1714 2952 2781 3180 3075 2954 3206 3919 3747 3302 3148 2792 2949 1914 1322
2441 3351 2558 2353 2794 2568 1997 2227 3502 2905 3130 2856 3265 3519 3810 2997 3453 3547 2871 2497 2505 1738
2841 3051 3165 2680 2955 2248 2984 2420 3742 3135 3026 3194 3068 3677 3509 3338 3479 3261 2893 2218 1978 1807
3330 2828 2931 3051 3115 3763 2763 4141 2962 3801 3214 3270 3295 3313 3603 3117 3012 3577 3044 2101 2192 1728
3238 3512 3341 2906 3175 3483 4098 3182 4257 3687 3381 3411 3162 3294 3285 3316 2545 3323 3051 2514 1982 2011
3204 3240 3475 3540 3052 3281 3422 3838 3286 3993 3906 3245 3180 3159 3273 3259 3226 2335 3197 3009 2522 2147
3365 3370 3410 3546 3685 3265 3292 3454 3668 3533 3472 3818 3317 3249 3170 3286 3559 3216 2899 3257 3000 2712
3372 3509 3516 3619 3684 3838 3592 3421 3551 3630 3611 3506 3697 3348 3228 3249 3515 3493 3051 2970 3348 3043
3459 3485 3835 3680 3775 3856 3946 3837 3782 3820 3703 3687 3585 3355 3084 2974 3320 3556 3367 3272 3215 3204
3404 3565 3737 3989 3889 3846 4036 4051 4029 4011 3966 3710 3695 3437 3243 2857 3129 3227 3283 3241 3261 3317
3862 3686 3922 4064 4098 4124 4050 4163 4119 4174 4101 4021 3863 3510 3364 3035 2650 3087 3145 3203 3198 3254
4044 4027 4027 4135 4153 4213 4279 4213 4311 4243 4271 4191 4029 3709 3464 3273 2915 2718 2922 3162 3299 3212
3783 3952 4068 4190 4341 4359 4363 4351 4304 4316 4274 4156 4196 3872 3732 3433 3112 2633 2628 2809 3221 3120
4023 3890 4093 4250 4448 4497 4487 4446 4425 4358 4341 4339 4179 4142 3935 3708 3433 3165 2803 2656 2797 3012

GFSNIL_con_mucape_039.txt.gz
CAPE
1816 1473 921 1406 683 553 1275 1680 1491 2295 1923 1903 1787 1878 1995 1983 2048 1820 1234 1590 711 57
1125 2226 1454 633 1529 1272 813 1236 1629 1873 2383 1885 1681 1650 1954 2475 1934 2347 1742 1073 1458 685
1198 1108 2286 1443 752 1910 811 732 1499 1864 2058 2086 1877 1883 2003 2663 2485 2110 2195 1651 1252 1219
1769 1219 1690 2132 1221 1795 1551 1624 1292 2144 2028 2031 2100 2283 2242 2191 2452 2616 2335 2060 1617 1248
2221 2021 1391 2019 2455 970 2244 1464 2434 2454 2178 2331 2067 2057 2699 2364 2246 2184 2409 2294 1851 1390
2134 2371 2170 1755 1873 2589 1547 2589 1756 2802 2476 2359 2448 2493 2206 2495 2331 2190 2336 2303 2123 1675
2452 2415 2533 2233 1827 1628 2496 2195 3064 2284 2804 2501 2419 2366 2477 2386 2440 2390 1927 2450 2593 2278
2639 2480 2442 2458 2508 2315 1780 2535 2405 2744 2707 2806 2530 2499 2376 2487 2474 2457 2457 1996 2504 2630
2658 2640 2435 2499 2442 2736 2711 2146 2445 2696 2476 2756 2828 2734 2560 2478 2506 2525 2593 2609 2100 2582
2764 2646 2673 2555 2738 2705 2910 2962 2643 2441 2795 2654 2797 2911 3004 2800 2564 2536 2653 2684 2618 2218
2649 2833 2741 2824 2714 2940 2966 3080 3194 3131 2843 3037 2944 2912 3017 3104 3038 2715 2597 2868 2836 2737
2762 2813 2984 2924 3082 3055 3066 3165 3207 3411 3375 3254 3230 3250 3135 3135 3193 3091 2870 2766 2852 2985
2816 2971 2931 3048 3064 3216 3328 3265 3322 3310 3550 3500 3466 3407 3391 3383 3180 3043 2936 2866 2742 2853
3503 3336 3296 3202 3299 3409 3540 3584 3567 3624 3594 3755 3685 3615 3655 3579 3612 3364 2966 2818 2699 2663

GFSNIL_con_mucape_042.txt.gz
CAPE
723 682 634 737 642 248 483 664 780 1408 1716 1760 1463 1367 1226 1268 1538 1226 954 835 242 117
837 784 846 885 538 507 383 1072 977 1341 1510 1814 1545 1450 1586 1287 1362 1692 1058 639 1071 317
1007 1464 983 782 786 956 587 984 1276 1184 1784 1756 1634 1429 1584 1844 1636 1675 1853 1443 686 875
719 689 1611 1517 872 652 1251 1206 1083 1328 1489 1776 1754 1652 1411 1446 2185 2182 1828 1961 1724 951
1272 933 743 1622 1949 1321 674 966 1523 1327 1470 1760 1832 1789 1619 1408 1759 2339 2200 1982 2095 1976
1582 1459 1133 823 1601 1904 1543 970 1262 1477 1537 1700 1781 1807 1784 1616 1662 1844 2145 2195 2213 2176
1683 1806 1636 1331 987 1820 2040 1474 1330 1745 1983 1913 1897 1799 1791 2006 1945 1796 1887 1948 2046 1929
1639 1864 2054 1892 1565 1306 1664 2192 1777 1657 1917 2142 2140 2103 1980 1796 1868 2084 2081 1968 2045 2183
2036 1905 1983 2200 2138 1848 1564 1463 2081 2176 2071 2039 2275 2300 2312 2190 2074 1989 1975 1974 1955 1909
2148 2310 2229 2218 2285 2333 2122 1860 1456 1758 2154 2159 2360 2523 2466 2453 2358 2253 2150 2089 2054 2087
2426 2394 2463 2353 2293 2270 2378 2445 2265 1818 1843 2211 2165 2345 2681 2738 2644 2478 2401 2367 2313 2252
2394 2653 2559 2554 2455 2396 2428 2442 2608 2605 2421 2118 2176 2419 2467 2657 2799 2764 2746 2668 2629 2621
2425 2563 2705 2655 2648 2627 2597 2704 2666 2707 2846 2868 2753 2617 2770 2799 2723 2616 2618 2680 2808 2855
1951 2425 2598 2737 2728 2751 2828 2729 2793 2877 2884 2978 3134 3168 3166 3093 3113 3083 3002 2951 2864 2800

GFSNIL_con_mucape_045.txt.gz
CAPE
63 28 38 169 526 607 441 360 597 865 1047 999 1102 1154 1150 945 932 1151 676 440 44 32
149 137 106 124 150 403 511 437 323 568 1106 1207 1215 1386 1305 1059 948 1228 1195 662 612 204
299 299 284 254 243 352 602 433 470 525 700 1002 1332 1545 1558 1174 1168 1180 1344 1334 706 685
450 450 459 508 476 454 541 485 672 737 895 1045 1111 1362 1594 1345 1345 1323 1407 1453 1520 1118
601 705 829 645 590 596 677 680 431 837 972 1215 1288 1306 1460 1517 1393 1626 1620 1825 1767 1783
619 629 828 1292 1196 856 782 736 864 1067 988 1095 1311 1385 1361 1385 1542 1429 1604 1755 1959 1870
920 844 654 613 1031 1389 1409 1332 1133 881 858 1171 1273 1467 1505 1527 1562 1605 1503 1692 1863 1940
1149 1168 1103 877 753 975 1351 1279 1395 1459 1240 1180 1264 1340 1453 1589 1660 1660 1626 1522 1592 1705
1129 1350 1398 1335 1223 1096 1110 1470 1213 1055 1089 1348 1509 1670 1686 1724 1662 1768 1744 1654 1631 1674
1353 1386 1572 1662 1627 1484 1318 1197 1562 1535 1227 1283 1396 1744 1965 2003 1949 1985 2006 1867 1734 1750
1756 1650 1596 1785 1958 1899 1711 1576 1458 1389 1647 1679 1680 1718 1907 2142 2129 1999 2063 2054 2030 2036
1924 1969 2003 1906 1928 2046 2125 2051 1894 1779 1631 1454 1693 1908 2091 2192 2267 2200 2194 2181 2224 2280
1978 2113 2152 2257 2189 2143 2197 2234 2305 2325 2262 2122 1969 1760 1931 2009 2066 2020 2098 2203 2346 2430
2023 2192 2302 2271 2306 2313 2317 2351 2405 2400 2413 2472 2487 2468 2485 2479 2474 2438 2492 2607 2712 2799

GFSNIL_con_mucape_048.txt.gz
CAPE
21 0 0 0 0 0 0 163 424 570 798 882 910 994 933 983 1036 813 720 585 83 7
91 0 0 0 0 0 25 118 256 513 844 858 963 957 1043 1024 1024 994 1017 913 599 306
93 33 25 27 7 8 90 356 394 434 732 951 991 969 999 1258 1261 1037 1136 1133 1064 720
120 46 48 50 48 39 13 83 384 417 486 671 944 1089 1104 1276 1552 1259 1125 1187 1239 1220
268 166 152 150 119 124 80 34 227 487 539 781 883 1011 1112 1255 1498 1571 1351 1306 1289 1407
388 339 301 300 273 234 233 183 223 440 614 758 1071 1170 1106 1228 1329 1582 1668 1610 1602 1686
439 414 479 519 523 400 420 425 408 452 561 762 960 1258 1343 1307 1315 1308 1510 1687 1724 1732
515 491 518 687 973 957 573 510 479 494 556 760 979 1144 1435 1526 1492 1481 1471 1533 1699 1816
670 636 565 480 508 923 1137 934 846 815 735 713 837 856 1075 1298 1633 1659 1613 1590 1569 1671
797 932 918 850 679 612 710 1144 1144 993 923 1030 1194 1123 1116 1212 1518 1674 1748 1771 1773 1729
949 1097 1169 1212 1185 1062 858 830 1227 1332 1126 980 1037 1048 1268 1341 1376 1658 1773 1777 1850 1899
1208 1205 1307 1461 1521 1490 1376 1214 1147 1213 1500 1542 1361 1077 1149 1348 1345 1622 1798 1952 1980 1955
1555 1522 1471 1489 1630 1781 1839 1735 1615 1578 1481 1403 1591 1523 1544 1567 1472 1543 1742 1969 2063 1876
1785 1809 1814 1788 1788 1859 1983 2098 2157 2135 2046 1948 1882 1902 1922 1958 1942 1939 2017 2028 2052 2193

GFSNIL_con_mucape_051.txt.gz
CAPE
1541 777 750 1190 667 650 588 860 1497 1915 1973 2096 2188 2154 2288 2166 2146 1996 1706 1641 874 361
1382 1357 953 1403 1268 723 1169 522 1140 1654 1832 1971 2100 2222 2355 2164 2392 2359 2324 2102 2149 1495
1201 1331 1347 1374 1397 1386 915 812 728 1534 1738 1935 2022 2243 2448 2074 2382 2531 2260 2063 2271 2236
955 838 818 962 1147 1481 1093 1110 1319 1616 1732 1880 1999 2127 2374 2297 2240 2570 2585 2414 2408 2498
1227 1144 922 1278 1048 1384 1617 1178 1343 1585 1801 1824 1815 1941 2171 2100 1746 2352 2660 2673 2562 2432
1161 1067 1327 1413 1281 1465 1369 1387 1139 1281 1846 1880 1825 1884 1982 2051 2156 2239 2399 2734 2775 2673
1301 1337 1313 1579 1687 1313 1766 1685 1415 1502 1846 1845 1873 1920 2017 2095 2239 2372 2344 2611 2798 2818
1465 1533 1624 1760 1860 1745 1853 1860 1913 1686 1698 1662 1594 1449 1881 2081 2251 2418 2510 2547 2709 2726
1708 1748 1815 1917 2037 2122 1916 1880 2212 2004 1807 1683 1381 794 949 1642 2185 2537 2620 2625 2668 2748
1965 1944 1981 2063 2225 2349 2318 1986 2177 1857 1859 2136 2258 1034 926 1046 1910 2420 2667 2869 2738 2516
2135 2092 2142 2158 2215 2351 2201 2504 2314 2099 2301 2352 2322 1403 931 809 1386 2524 2941 2990 2843 3018
2154 2224 2304 2311 2302 2160 1958 1984 2247 2243 2354 2493 2550 1462 1208 1091 1705 2048 2845 2948 2897 3081
2124 2293 2457 2539 2643 2674 2358 2247 1798 1894 2485 2144 2732 1823 1227 1040 1582 2146 1964 2753 3054 2010
2425 2515 2649 2875 3017 2688 2599 2724 2538 2430 2746 2526 2311 2703 1779 1397 1655 1907 2098 2067 2066 2205

GFSNIL_con_mucape_054.txt.gz
CAPE
2142 899 1091 1411 1015 879 701 730 1065 2180 2259 2417 2288 2268 2440 2225 1985 2255 1880 1959 1215 243
2399 2155 1349 2331 1429 1052 1678 671 887 1388 2090 2052 2212 2399 2406 2047 2478 2289 2424 2077 2070 1852
1631 1946 2137 1705 2217 1819 1186 1396 975 1274 1554 1533 1876 2297 2596 2059 2320 2647 2268 2056 2175 2317
1557 1543 1598 1609 1686 1860 1745 1598 1840 1443 1324 1332 2032 2236 2527 2323 1999 2719 2805 2462 2209 2790
1999 2136 1537 1806 1743 1891 2036 1852 2000 1879 1676 1481 1745 2244 2561 2438 1748 2229 2552 2765 2759 2655
1640 1693 2083 2065 1798 2264 2068 2110 1890 1964 2008 1816 1702 2145 2488 2555 2281 2099 2322 2538 2786 2777
1733 1943 1642 2490 2600 1989 2491 2303 2203 2187 2128 2028 1744 1668 2087 2251 2403 2313 2313 2545 2630 2950
2499 2357 2522 2832 2882 2522 2678 2403 2339 2330 2297 2155 1883 1349 1933 1982 2053 2359 2442 2445 2792 2918
3033 2958 3031 3195 3335 3357 2964 2859 2836 2331 2397 2309 1819 930 794 1233 1805 2088 2498 2634 2751 2879
3208 3248 3326 3356 3522 3447 3442 3020 3289 2516 2573 2997 2769 1276 767 715 1493 1767 2534 3272 2738 2525
3359 3374 3521 3561 3626 3740 3143 3331 3155 2852 3299 3341 3097 1769 1311 835 1631 2355 2703 2928 2838 3460
3397 3423 3277 3350 3426 3186 3262 3093 3081 2910 3235 3278 3548 1893 1608 1374 1755 1845 2887 2899 3182 3438
3343 3499 3483 3479 3748 3763 3138 3210 2819 2876 3260 2691 3369 2562 1851 1485 1858 2354 1971 3056 3668 2230
3432 3705 3670 3983 3942 3829 3220 3314 3397 3102 3539 3832 3151 3324 2221 1821 2278 1917 1931 1815 1613 1806

GFSNIL_con_mucape_057.txt.gz
CAPE
2646 954 852 1645 932 655 461 601 3613 2623 2217 2365 2424 2352 2895 2150 1989 3036 1948 1880 2350 587
2405 1889 694 1604 2556 1360 1697 817 1105 2124 2258 2118 2057 2666 2926 1816 3020 2518 2431 2641 2433 1714
2529 2625 2182 2366 3325 2303 2464 2622 1450 1960 1651 2122 2630 2736 3675 2594 2768 3134 2309 1651 3396 2939
2367 2248 2316 2995 3125 3334 2862 3267 3041 2668 2304 2271 2357 2785 3881 3639 2641 2746 3285 3005 2531 3519
2676 2249 2098 2314 2909 3319 3400 3029 3488 3141 2931 2432 2099 2970 3568 2624 2300 2691 2782 2926 3505 2553
2485 2495 2250 2850 2700 3127 3476 3721 2432 3266 3532 3039 2417 3145 3457 3639 3268 2975 3032 2988 3319 3228
2591 2622 2515 2976 3141 3237 3531 3722 3615 3693 3655 3370 2961 2772 2733 3208 3399 3353 2821 3163 3288 3382
2670 2840 3074 2873 3348 3317 3566 3654 3841 3954 3817 3673 2856 2078 2842 3170 3324 3636 3308 3274 3432 3307
2927 3115 3084 3043 3317 3600 3703 3842 3976 3885 3911 3801 2191 1436 1222 1968 2736 3338 3583 3691 3682 3738
3099 3214 3232 3276 3531 3730 3837 3964 4176 4061 3980 4029 3906 1605 1175 865 2212 2916 3302 3632 3798 3280
3532 3438 3563 3711 3764 3952 3985 4002 4124 4168 4208 4201 3964 2434 1562 1092 2153 2289 2855 3517 3678 3987
3494 3839 3903 3903 3970 4098 4127 4138 4095 4170 4312 4379 4263 2392 1989 1504 2021 2166 2922 3123 3202 3577
3732 4025 4052 4123 4240 4279 4208 4179 3612 3926 4310 3995 4506 3419 2261 1779 2253 2449 2153 3218 3586 2499
4036 4173 4293 4450 4439 4451 4387 3724 4296 4167 4267 4393 4051 4334 2785 2225 2811 2145 2237 2125 1926 2239

GFSNIL_con_mucape_060.txt.gz
CAPE
2278 1354 1443 2613 1520 2539 1552 1653 2639 3180 2848 3231 3261 3084 2920 3150 3083 2981 3158 3188 3105 2403
1767 1812 1033 2262 2547 2026 2391 2276 2731 2970 3421 3150 3328 3116 3164 2597 2764 2640 3181 3070 3469 3102
828 1663 1646 1114 2621 1882 2604 2317 2983 3218 3005 3182 3518 3661 3541 2905 3118 3051 2578 2911 3004 3198
1572 1194 1126 1603 940 2342 2002 3990 3306 3733 3274 3062 3062 3650 3645 3077 3174 3116 3141 3463 3570 3235
1996 1443 1339 797 1924 2188 2620 2608 3728 3292 3877 2998 3074 3135 3235 3240 2037 3053 3151 3465 3228 3516
2127 2049 1669 1244 1024 2160 2296 3151 2567 3370 3047 3292 2801 2820 2963 3249 2963 2864 3336 3277 3414 3237
2068 2018 1855 2006 1147 2235 2461 2269 2679 2769 3190 3068 2793 2480 2555 3251 3180 3006 2795 3297 2949 3414
2264 2075 2108 1857 1966 1281 2039 2489 2755 2854 3078 3133 2974 2460 2315 2561 3062 3181 3052 2903 3206 3151
2275 2242 2317 1987 2223 2267 2157 2438 2815 2966 3054 3209 2930 2211 1651 2007 2335 3209 3096 3020 2966 3480
2384 2457 2291 2524 2126 2735 2436 2731 2795 2941 3109 3215 3222 2212 1592 1520 2127 2382 2856 3081 3004 3043
2277 2391 2554 2496 2715 2457 2852 2717 2958 3006 3074 3204 3247 2843 2032 1390 1514 2166 2551 2654 2885 3159
2248 2564 2558 2653 2583 2704 2742 2945 2952 3081 3206 3214 3237 2957 2562 1967 1279 1625 1980 2080 2596 3255
2724 2625 2773 2722 2769 2829 2910 2938 3050 3044 3185 3230 3415 3137 2827 2446 1767 1631 1847 2207 2449 2029
3444 2813 3201 3127 3108 3190 3234 3200 3356 3338 3358 3632 3494 3663 3144 2589 2161 2052 2140 1954 2136 2369

GFSNIL_con_mucape_063.txt.gz
CAPE
1341 281 575 1072 1009 1145 1319 1284 1492 1553 1578 1620 1914 1369 1556 1294 1756 1414 1950 1302 1819 1257
991 603 362 557 994 1170 1396 1155 1366 2116 1544 1567 1769 1673 1547 1422 1860 1811 1800 1786 1572 1808
363 1147 449 345 750 1140 469 1308 1356 2164 1591 1941 1780 1447 1747 1177 1520 1538 1383 1071 1832 1409
73 606 853 512 223 957 731 1381 1988 1918 2309 2135 1877 2073 2011 1426 1736 1502 1290 1374 1700 1735
331 97 647 594 587 200 857 877 1931 2061 2041 2043 2055 2162 2094 1911 1604 1761 1836 1677 1884 2055
941 253 204 250 470 610 1048 676 1900 2063 1972 1894 1769 1718 2071 2131 1849 1742 1899 1919 2227 2010
1079 1010 302 179 36 826 575 1893 1103 2071 1697 2013 1575 1754 1881 1953 2076 2075 1858 2276 2066 2094
1301 1114 1071 572 400 1 1041 760 2062 1463 2299 1835 2058 1731 1637 1826 2175 2178 2116 1950 2007 2330
1457 1386 1280 1184 900 695 167 1418 838 1529 1731 2302 2096 2046 1808 1553 2060 2398 2208 2206 2220 2203
1529 1499 1431 1340 1192 1268 1019 781 1702 1348 1511 1751 2095 2192 2160 1846 1429 1590 2310 2335 2218 2255
1531 1481 1564 1452 1397 1187 1217 1023 739 1437 1775 1912 1968 2352 2279 2132 1725 1453 1513 2220 2399 2258
1445 1639 1693 1534 1501 1370 1457 1430 1157 1499 1729 2013 2108 2302 2500 2289 1849 1509 1483 1646 1778 2227
1478 1607 1685 1735 1474 1657 1390 1413 1771 1531 1874 2044 2102 2241 2442 2482 2194 1684 1366 1357 1648 2066
1693 1529 1761 1755 1832 1623 1795 1700 1667 1976 1904 2080 2279 2303 2417 2575 2402 1783 1307 1325 1203 1322

GFSNIL_con_mucape_066.txt.gz
CAPE
341 221 499 841 693 921 1222 1267 1275 1297 1068 1241 1003 1101 938 1214 1146 1312 1384 1312 1158 1055
723 636 319 753 870 969 908 1016 1291 1557 1252 1253 1293 922 1156 1165 1035 1425 1209 1494 911 1226
204 584 754 342 670 1002 998 1049 1036 1602 1457 1151 1250 1230 962 1106 1137 1434 1209 1264 1255 1049
17 227 793 660 267 745 1162 1086 1116 1422 1528 1376 1222 1243 1240 1149 901 1208 1234 989 906 1225
0 60 339 792 540 217 811 804 1165 1350 1578 1479 1304 1318 1220 1366 1191 1164 1411 1087 972 1419
170 0 84 379 639 547 199 607 1583 1538 1723 1618 1504 1535 1601 1577 1454 1322 1399 1425 1380 1260
608 259 28 49 318 400 577 132 847 1675 1580 1519 1669 1786 1707 1733 1666 1562 1410 1365 1496 1620
703 747 450 197 17 150 266 457 301 1066 1662 1615 1460 1427 1393 1455 1558 1611 1527 1503 1550 1725
650 862 852 671 506 194 9 178 539 920 1130 1476 1610 1452 1410 1379 1449 1520 1503 1422 1490 1682
1237 1017 943 928 870 763 532 81 280 593 1217 1361 1454 1506 1526 1343 1193 1431 1507 1508 1528 1625
1497 1439 1355 1153 1020 990 896 748 409 549 540 1057 1440 1794 1790 1623 1497 1328 1319 1594 1786 1892
1672 1595 1518 1433 1300 1187 1132 1043 982 580 1036 851 777 1117 1540 1813 1790 1574 1505 1427 1226 1582
1099 1510 1610 1509 1452 1364 1311 1217 1138 1046 857 1190 1384 1430 1458 1686 1561 1474 1549 1510 1412 1347
976 1241 1479 1506 1476 1438 1394 1309 1240 1186 1066 879 939 1227 1506 1651 1624 1459 1321 1344 1236 1164

GFSNIL_con_mucape_072.txt.gz
CAPE
78 104 139 175 220 176 423 651 814 987 872 870 819 629 552 582 869 920 759 938 1098 878
126 89 208 386 471 447 446 705 950 915 988 846 945 926 616 754 827 989 1087 1050 1023 929
54 76 40 115 368 438 590 639 912 980 951 1005 947 994 909 824 905 960 978 1031 1060 1009
55 45 0 0 110 343 466 733 831 988 1126 1000 910 968 1032 968 834 947 1046 1038 1011 1101
41 59 104 0 0 101 363 432 705 858 1095 1156 1062 1049 1188 1218 1073 842 884 1048 1068 1069
132 4 60 108 81 90 175 222 343 641 948 1152 1193 1111 1131 1252 1204 1071 986 1023 1063 1176
229 110 0 0 39 0 57 166 242 371 651 978 1151 1168 1191 1175 1161 1154 1090 1130 1214 1335
229 156 84 0 0 8 17 21 91 206 597 907 1195 1149 1224 1236 1252 1237 1225 1263 1210 1242
260 247 170 126 36 0 0 36 0 36 323 781 950 1126 1204 1207 1321 1359 1413 1422 1368 1415
300 313 306 261 165 79 67 37 9 5 28 255 657 732 1134 1251 1337 1383 1386 1448 1500 1305
290 355 401 374 321 276 247 218 175 109 69 62 140 250 618 921 831 1247 1273 1250 1220 1273
466 436 462 510 559 448 495 522 440 352 298 255 219 192 154 443 538 794 1095 1156 1216 1213
744 765 806 659 664 597 601 633 732 751 732 705 654 618 544 425 290 330 497 877 1009 849
706 1079 1421 1157 1133 929 873 875 1111 1152 1149 1002 978 957 929 801 625 415 357 449 575 1026

GFSNIL_con_mucape_075.txt.gz
CAPE
1188 987 998 1394 1148 1383 1364 1534 1955 2330 2175 2202 1989 1807 1850 1804 1764 1966 1855 2097 2570 1814
1198 1139 1085 1197 1385 1202 1531 1285 1884 2004 2276 2182 2197 2126 2041 1652 2325 2459 2237 2176 2189 2086
717 863 1119 1268 1434 1405 1517 1746 1635 2067 2193 2310 2321 2252 2245 1879 1942 2190 2085 1897 2322 2322
771 658 859 973 1252 1623 1808 1980 2034 2121 2128 2261 2334 2412 2477 2355 2104 2237 2338 2202 2305 2313
810 756 663 808 922 1176 1651 1819 2073 2195 2270 2295 2328 2403 2446 2350 1953 2195 2026 2054 2266 2136
410 726 793 901 901 988 1151 1563 1573 1919 2180 2326 2351 2409 2450 2519 2428 2393 2251 1982 2112 2141
261 262 658 1216 1253 1024 1070 1329 1410 1658 1878 2099 2397 2464 2435 2422 2517 2539 2387 2291 2167 2152
809 477 325 876 1336 1106 1098 1070 1172 1341 1473 1708 1750 1751 2190 2360 2491 2538 2444 2348 2334 2225
965 1067 1066 1175 1274 1270 1090 1079 1124 1026 1372 1408 1161 689 776 1569 2187 2383 2422 2498 2496 2426
1092 1067 1230 980 1022 1119 1268 1146 1169 1027 1024 1482 1708 841 571 912 1499 2041 2381 2521 2544 2393
854 901 1082 1116 1062 1215 912 1086 1043 984 1178 1311 1256 586 538 619 1304 2112 2315 2414 2356 2566
712 1157 1049 1124 1196 1184 977 845 799 841 984 1226 1383 353 177 244 936 1132 2172 2382 2290 2570
396 552 1225 1282 1370 1359 1378 1118 960 839 860 600 1087 565 420 317 378 994 861 1582 2053 1307
202 478 695 1043 1748 1531 1693 1658 1578 1492 1392 1253 1021 982 920 791 679 637 951 1012 1007 940

GFSNIL_con_mucape_078.txt.gz
CAPE
2096 1615 1417 1327 946 1042 1199 1402 1759 2554 1722 1779 1841 2069 2458 1528 1243 1688 1083 1461 1968 1291
2082 1934 1190 1108 1290 1211 1442 1195 1830 2240 2174 1800 1797 1882 2253 1692 1840 1829 1888 1763 1622 1634
1732 1879 1767 1488 1431 1470 1158 1755 1469 2358 2363 2088 2264 2386 2516 1789 1881 2074 1842 1652 1793 2199
1486 1580 1719 1508 1445 1732 1529 1694 2188 2522 2414 2312 2223 2325 2855 2488 1912 2312 2042 2129 2180 2439
1961 1473 1321 1505 1386 1584 1777 1760 2231 2562 2653 1884 2067 2343 2809 2522 1827 2084 2018 2106 2298 2277
1144 1337 1306 1329 1496 1512 1685 1714 1594 2152 2679 2509 1997 2479 2704 2806 2611 2252 2158 2030 2336 2164
1118 1191 1215 1325 1497 1560 1689 1751 1607 1741 2129 2439 2242 2221 2629 2851 2927 2509 2219 2556 2584 2461
1304 1221 1175 1010 1344 1569 1744 1783 1792 1622 1735 2020 2099 2058 2685 2802 2754 2773 2827 2645 2881 2699
1323 1428 1536 1371 913 1540 1710 1871 1904 1837 1567 1464 1071 713 1039 1451 2482 2715 2907 2846 2710 2816
1228 1556 1589 1630 1713 1629 1616 1827 2012 1881 1821 2002 1833 485 334 647 1364 1664 2304 2591 2520 2251
818 1255 1785 1875 1919 1810 1760 1743 1767 1803 2166 2026 2089 999 630 403 1189 1661 2223 2546 2458 2841
163 212 901 1664 1784 2092 2052 1948 1756 1710 1868 2180 2253 1231 778 566 1089 995 1962 2210 2732 2994
170 172 198 415 1382 1805 2011 1708 1780 1731 1766 1478 1930 1472 1096 611 917 1007 1029 1922 2599 1611
147 130 108 165 531 1172 2150 2633 2414 1956 2210 2285 1782 1747 1072 825 974 1031 1136 1147 1217 1270

GFSNIL_con_mucape_081.txt.gz
CAPE
2440 1669 1207 1711 2200 1834 1422 1742 2919 2168 1867 1844 1838 1949 2127 1889 1853 2674 1602 1550 2920 2040
2868 2540 1779 2257 1900 1184 2643 1511 2082 1670 1821 1837 1855 1927 2274 1984 2596 2144 2167 1899 1958 1939
2166 2476 2364 1627 1875 1598 1760 1589 1103 1745 2546 2161 1806 2000 2355 2732 2529 2007 1841 1212 3239 2852
2189 2041 2262 1964 1718 1872 1688 1796 1742 2147 2618 2254 2650 2240 3207 3078 2483 2330 2047 2319 2243 2285
2438 2478 1883 2131 1901 1888 2362 1946 1998 2352 2327 2396 2046 2608 2670 2377 1788 1873 2204 1939 2273 1936
1896 1831 2014 2259 1996 2636 2377 2404 1529 2258 2867 2510 1963 2856 2882 2663 2767 2341 2316 2324 2301 2098
1778 1744 1844 2396 2830 2067 2947 2629 2335 2432 2895 2575 2064 1984 2318 2848 2843 2781 2564 2492 2804 2620
1773 1640 1765 1918 2267 2403 2868 2848 2890 2917 2651 2752 2091 1864 2635 2661 2846 2905 3282 2849 2900 3232
1836 1882 2080 1989 1944 1997 2245 3283 3553 3048 2995 2673 1409 680 952 1793 2980 3398 3857 3229 3231 3296
793 1129 1610 2234 2571 2341 1971 2571 3442 3320 3139 3267 3167 1248 435 776 1627 2505 3342 3593 3625 2948
916 671 815 1282 1913 2304 2547 2657 2824 3144 3482 3594 3176 1795 1085 544 1761 2092 2556 2849 3509 3805
602 268 318 575 1059 1603 2422 2272 2185 2262 2947 3007 3496 2088 1487 1163 1419 1303 1971 2422 2671 2706
92 130 131 129 214 441 1518 2017 2735 2017 2555 2035 2923 2403 1929 1549 1476 1850 1597 2353 2528 1502
0 0 58 103 102 156 219 678 1729 2186 2603 3022 2549 2720 1719 1543 1937 1719 1672 1753 1683 1889

GFSNIL_con_mucape_084.txt.gz
CAPE
2962 2264 2110 2573 2954 902 734 1111 2077 2499 2815 3099 2666 2463 2836 3343 2915 3007 2795 2646 3000 2856
3107 3001 1650 2401 3142 2348 1880 838 2097 1161 2608 2883 2890 2624 2726 2345 2982 2907 2842 3014 2984 3147
2998 3028 3092 3443 3352 3329 2717 1086 662 919 1323 2971 2962 2755 2927 2486 2308 2705 3022 2479 2892 3095
2635 2834 3110 2956 3291 2995 2890 1683 907 0 884 2626 3131 2811 2951 2352 2162 2200 2434 2693 2629 2765
2933 2561 2725 2857 2902 3271 3134 3149 2991 2355 2580 2872 2698 2540 2676 2751 2150 2319 2662 2685 2178 2398
2555 2675 2674 2872 2792 3187 3171 3016 2662 2650 3165 3040 3108 3194 2956 2740 2864 2754 2285 2693 2660 2828
2612 2584 2394 3188 3210 2957 3297 3139 3026 3019 3246 2852 3025 2993 2873 3121 3021 3377 2587 3001 2990 3222
1187 2231 2825 2865 2631 3169 3130 3096 3255 3189 2911 3226 2963 2259 2598 2870 2985 2676 2513 2868 2903 3123
567 937 1618 2326 2454 2651 2998 3259 3275 3035 3130 2817 1993 1316 1265 1670 2215 3059 2986 2534 3019 3229
352 656 996 962 1925 2310 2393 2374 2893 2991 3129 2970 3019 1946 1331 763 1957 2862 3012 2971 2950 2935
258 318 393 596 941 1072 1124 2252 2247 2422 2818 2888 2949 2497 2064 1609 1208 1488 2057 2218 2712 2897
256 191 352 369 412 907 854 944 1459 2127 2287 2485 2773 2274 1912 1979 1613 1454 1460 1477 1969 2129
0 0 56 98 77 144 543 739 691 1074 2012 2009 2159 2236 1946 1751 1839 1935 1871 1788 1709 1055
5 0 6 8 0 38 69 238 323 711 1554 2011 2011 2349 1873 1709 1602 2173 2066 1913 1786 1792

GFSNIL_con_mucape_090.txt.gz
CAPE
845 658 579 619 591 761 688 804 1050 1275 1394 1167 947 844 1126 1222 1241 1141 1265 1234 1214 615
999 687 668 635 398 764 812 188 860 748 1175 1279 1306 745 1390 1337 1341 1490 1261 1062 1140 1026
762 1075 755 726 975 898 845 514 1138 997 1061 1133 1364 1290 1060 1358 1052 1148 1223 1238 1504 1364
1166 1156 1058 1195 1319 1189 827 678 926 794 805 875 1166 1426 1167 1070 1031 1111 1194 1043 1252 1112
1142 1403 1275 1163 1455 1575 1161 880 705 710 435 767 974 1160 1344 1238 1273 1101 892 1325 1074 1273
835 987 1323 1610 1691 1695 1534 833 681 851 757 259 444 700 1440 1513 1106 1112 1301 1280 890 1059
589 930 1210 1279 1437 1331 1564 1375 1016 1017 985 855 977 1042 1067 1417 1381 1238 1095 1327 1448 1414
196 401 666 1067 1365 1619 1413 1336 1430 1349 1419 1559 1361 1412 1389 1529 1776 1665 1378 1262 1588 1741
101 247 249 561 820 1006 1197 1318 1408 1473 1397 1304 1560 1914 1638 1471 1358 1621 1795 1671 1681 1606
77 95 64 133 207 413 640 905 1031 1191 1310 1404 1562 1446 1465 1458 1348 1460 1454 1280 1374 1474
33 42 65 107 146 182 188 388 789 966 939 945 1129 1294 1360 1361 1187 1190 1128 1049 1120 1379
48 85 47 39 82 141 94 128 224 467 604 731 812 763 888 1004 1164 1154 1171 1144 1248 1305
46 64 97 108 116 108 105 92 108 152 301 304 461 710 613 719 912 1048 1079 1121 1193 1274
0 0 6 15 17 3 14 38 72 75 95 189 236 195 173 230 373 501 705 778 753 772

GFSNIL_con_mucape_093.txt.gz
CAPE
715 543 317 498 647 657 616 667 948 1029 1145 1088 1031 680 364 1026 1174 1197 1250 1123 1161 793
664 637 533 542 552 606 698 684 677 952 1170 1083 1069 1011 917 1164 1191 1451 1316 1018 1070 1180
623 740 594 561 579 531 521 828 607 419 754 993 1154 1347 782 1092 1262 1057 1015 1168 1247 1310
542 585 812 714 597 827 938 813 681 936 910 953 953 1132 1356 1052 1051 995 1076 1095 1093 1107
602 670 760 826 868 1021 1284 945 786 864 708 662 735 897 1158 1317 1195 1075 1021 890 998 1200
765 845 810 951 1036 1002 1228 1253 1110 801 689 533 632 720 909 1093 1102 1123 1021 1026 1173 1166
295 352 508 716 879 1062 1153 1203 1165 929 664 767 784 492 419 692 1119 1167 1154 1119 1071 1136
133 200 302 418 492 663 1074 1132 1214 1111 987 990 962 971 1039 1151 1137 1305 1353 1278 1242 1120
61 39 75 98 259 407 473 550 876 1082 1215 1208 1318 1532 1562 1425 1369 1376 1382 1297 1419 1401
42 43 49 55 74 72 135 205 396 573 766 954 1128 1242 1380 1493 1473 1389 1241 1191 1240 1252
47 24 21 36 28 46 73 78 94 250 339 570 596 856 1033 1116 1016 1199 1090 1022 979 942
36 12 40 4 13 29 17 42 94 98 82 149 278 561 679 791 848 877 950 902 977 1004
12 33 7 32 33 31 25 26 45 76 116 168 121 220 290 336 357 403 530 619 668 738
78 45 42 46 40 50 22 70 58 89 112 97 94 87 128 143 139 135 151 248 355 439

GFSNIL_con_mucape_096.txt.gz
CAPE
281 385 402 397 356 435 485 523 522 726 987 934 872 733 502 802 1011 1063 1070 1056 984 803
401 430 368 285 422 465 543 470 465 741 900 928 964 954 710 890 954 1210 1207 1020 910 1209
436 490 463 422 423 475 367 466 524 527 446 776 838 887 978 842 1034 1102 918 984 1073 1177
321 502 526 505 440 532 608 683 553 568 427 544 710 883 1112 1050 886 971 929 972 985 1080
159 318 443 448 450 608 759 726 568 464 634 667 690 684 904 1024 1079 929 889 884 825 722
503 519 598 587 610 655 719 712 666 577 633 564 399 443 593 723 880 926 944 878 902 906
313 331 321 393 524 567 622 780 850 806 907 834 589 550 590 429 918 923 917 929 944 987
68 100 85 149 211 313 476 672 883 959 897 859 810 818 787 691 799 1069 1147 1111 1243 1197
47 78 71 74 67 117 216 309 349 462 680 907 891 955 1060 1151 1211 1229 1309 1562 1469 1296
37 71 55 50 41 63 16 76 68 112 280 369 500 595 886 1101 1206 1268 1217 1160 1081 1015
24 40 71 48 23 31 44 37 52 59 50 88 173 395 556 649 740 824 825 690 729 725
40 21 39 20 29 14 2 9 28 48 121 66 68 133 298 376 505 518 656 669 637 546
37 3 0 3 0 0 0 2 4 45 57 63 78 98 122 176 224 233 232 260 254 286
0 0 10 11 21 22 13 8 17 26 42 49 55 72 77 93 97 126 114 89 79 88

GFSNIL_con_mucape_099.txt.gz
CAPE
1681 1201 1518 1644 1304 1364 1542 1382 1804 1879 2040 1937 1899 1618 1532 1591 1963 2119 1929 2264 2260 1698
1188 1270 1293 1373 1417 1316 1575 1464 1533 1723 1688 2019 1888 1910 1831 1227 1987 2292 2349 2087 2128 2152
1171 1277 1354 1409 1507 1470 1403 1492 1583 1503 1563 1851 1971 1986 1986 1880 2122 2172 2043 1693 2311 2418
958 1374 1479 1390 1350 1622 1556 1621 1628 1528 1236 1260 1422 1772 2359 2279 1779 2074 2101 1940 2177 2273
1076 1276 1414 1489 1501 1531 1433 1687 1645 1539 1713 1781 1674 1865 2103 2056 1908 2057 1902 1706 1899 1949
912 976 1073 1313 1439 1498 1418 1782 1711 1550 1662 1783 1408 1219 1529 1806 1777 1978 1908 1842 1905 1700
757 1106 1121 1302 1233 1484 1603 1622 1822 1637 1586 1567 1198 1049 1045 1144 1588 1904 1626 1557 1872 1861
197 324 542 694 740 708 1169 1339 1612 1631 1511 1488 1289 859 1000 1135 1133 1247 1970 2058 1839 1851
81 142 258 301 291 294 366 616 723 796 891 823 990 761 771 750 1783 2083 2224 2195 2229 2105
85 37 30 82 126 135 181 207 256 325 460 266 221 372 494 725 1452 1976 2113 1968 1805 1674
26 14 9 56 73 55 57 47 117 334 33 1 57 221 439 494 933 1147 853 670 703 711
10 7 6 29 43 57 34 4 218 19 22 25 17 49 116 236 291 224 195 275 230 245
99 46 12 1 40 17 2 15 6 22 53 28 5 14 43 64 57 73 74 62 47 16
92 11 0 0 0 0 0 0 2 10 16 5 5 2 12 56 75 68 59 40 38 10

GFSNIL_con_mucape_102.txt.gz
CAPE
1175 661 545 791 1371 884 1445 1128 1790 1366 1510 1641 1470 1939 2140 1971 1608 1686 1466 1916 2334 1513
929 934 1043 1013 1248 1239 1165 1682 1772 1786 1545 1707 1641 1933 2027 1508 2010 2211 2226 1644 1842 1817
966 952 644 903 761 1164 1784 1843 2003 2047 1893 1519 1548 1465 1792 1484 1661 2143 1652 1521 1789 2040
928 742 1048 947 793 1097 956 1592 1799 2228 2115 1847 1679 1782 2204 2024 1577 1884 1538 1693 1866 2089
520 819 673 1037 853 1190 1079 1472 1404 1674 2286 1790 1291 1585 2038 1725 1211 1652 1328 1278 1415 1678
543 532 788 920 1019 1252 1052 1158 1264 1601 1555 1179 1666 1612 1611 1577 1639 1485 1354 1163 1261 1282
740 742 792 1035 1352 1257 1665 1013 1035 1248 1691 1414 1231 1506 1725 1595 1619 1525 1291 1506 1300 1401
970 1042 1236 1223 1438 1500 1588 1228 1940 1413 1768 1819 1557 1084 1879 1916 1804 1870 1669 1687 1594 1495
143 373 764 1017 1206 1313 1528 1762 1808 1834 1794 1588 1243 714 654 690 1837 2015 1718 1666 1811 1552
124 154 185 284 618 836 1043 1134 1144 1185 1172 301 253 304 359 488 1544 1950 1535 1674 1840 1591
101 52 42 48 104 252 304 510 725 392 144 43 25 192 361 615 1466 1315 815 528 529 410
40 36 8 15 46 73 278 322 426 103 5 24 52 58 173 269 313 305 316 194 144 63
62 65 89 65 30 37 165 143 103 19 9 0 22 53 52 36 56 65 64 61 38 13
61 118 50 18 0 0 14 18 6 4 0 0 19 18 51 36 33 48 40 34 18 2

GFSNIL_con_mucape_105.txt.gz
CAPE
1327 970 707 1020 1994 1630 1179 1225 2077 1673 1498 1493 1883 1857 2183 1919 1397 2713 1726 1976 3551 2236
1296 1160 1412 432 1618 1777 1314 2120 1981 1380 1495 1533 1532 1784 2062 1784 2094 2298 2166 2427 1905 2026
1088 1058 1063 1213 1216 502 1054 1233 2076 1596 1716 1811 1824 1914 2029 2296 2317 1920 1846 1050 2054 2057
661 586 781 599 708 974 948 1148 1403 1665 1708 1590 1898 1903 1978 2823 1968 1989 1772 1707 1667 1455
955 689 523 649 647 1079 1234 1390 1430 1794 1654 1367 1691 1785 1978 2284 1278 1416 1507 1465 1545 1533
991 827 715 572 664 911 1291 1312 1439 1415 1415 1559 1680 1399 1769 2020 1516 1578 1217 1134 1372 1453
1441 900 941 1971 778 910 1405 1375 1219 1663 1884 1652 1554 1629 1432 1588 1760 1738 1437 1475 1862 1849
1885 1530 1413 1386 1611 946 1018 1141 1210 1217 2236 1377 1338 788 1282 1519 1721 1963 1789 1421 1479 1585
1104 1189 1479 1413 1396 1416 1283 1257 1308 1337 1527 1463 1302 449 548 803 1815 1717 2067 2073 1564 1237
350 240 386 644 1095 1161 1186 1269 1431 1262 1300 1220 716 392 382 515 1130 1703 1993 1861 1854 2011
144 161 227 177 235 364 598 927 942 824 321 160 102 154 325 457 1442 1823 1576 1544 1273 1105
296 166 44 34 60 97 247 433 272 170 109 71 60 85 227 414 1174 582 373 281 253 190
113 3 10 1 14 13 27 58 99 95 96 82 22 10 20 95 328 430 106 67 74 58
114 55 79 20 28 2 35 123 122 96 54 18 2 3 28 23 20 32 45 25 24 21

GFSNIL_con_mucape_108.txt.gz
CAPE
1847 2052 1357 845 662 90 164 406 1904 2817 2810 2937 2882 3080 2853 3093 2763 2972 3094 3646 3243 3195
2523 1712 2618 1314 582 107 322 470 982 2140 2764 2758 2330 2942 2711 2885 2468 1806 967 2733 3482 3005
1980 2112 2458 953 500 185 75 501 226 838 2536 2645 2199 2202 2931 2159 1748 2141 2372 2362 2520 2966
1522 1729 1894 1957 1421 671 307 897 305 1524 2394 2266 2147 2091 2576 2507 2614 2030 2749 2702 2220 2282
1604 1346 1451 1929 1563 2329 2368 2868 2261 2490 2630 2679 2523 2580 2703 2296 1986 1517 1932 2451 2630 2519
1744 1773 1570 1133 1496 2395 2766 2474 2160 2462 2280 2129 2057 1864 2663 2698 2793 2109 1814 2423 2323 2286
2054 1541 1741 1205 1658 2299 2717 2363 2508 2037 1485 2168 2348 2027 2309 2722 1986 2199 1944 1994 1814 867
758 1283 1801 1541 2254 1695 2024 1594 1713 1910 2025 1726 996 764 848 1732 1967 1862 1973 2706 2136 2294
816 773 631 783 1226 1603 1916 1754 1786 1643 1843 1378 698 442 271 509 1738 1780 1934 2025 1959 1357
1067 725 455 593 889 796 1067 1363 1497 1709 1565 934 701 345 337 308 378 1373 2316 2479 2575 1498
326 187 102 134 432 525 307 390 588 605 421 303 146 123 97 187 235 1608 1794 1254 1460 726
276 74 93 53 72 80 128 150 128 149 100 34 47 54 109 240 1634 868 674 425 257 257
355 159 25 0 11 17 57 75 72 60 20 9 26 52 84 87 533 357 108 40 56 85
138 43 1 5 97 11 3 3 13 15 21 39 44 62 44 57 105 119 53 2 24 41

GFSNIL_con_mucape_111.txt.gz
CAPE
696 539 389 236 259 298 211 503 491 861 1092 1014 1368 1254 1668 1194 1777 1208 1184 1128 1438 1920
631 485 384 310 276 199 0 127 583 715 884 1093 1391 1210 1305 1418 1123 1271 881 1116 1236 1666
836 700 574 364 131 36 0 0 172 500 787 1068 911 662 1259 1055 814 1260 1169 1335 961 1203
1076 782 664 400 265 188 0 144 253 343 830 1110 817 1050 1198 1158 796 1103 1058 1215 1142 1000
836 840 851 611 426 446 231 434 132 171 937 944 954 1136 969 878 1488 947 838 862 947 988
800 883 675 583 647 407 488 817 895 977 883 964 1207 981 1079 1354 969 921 1202 978 1045 841
894 829 817 801 355 1077 879 764 715 1097 846 817 809 713 1152 1221 1189 970 1033 1313 1136 758
617 796 755 952 499 1106 1139 930 774 808 834 507 509 458 667 819 1147 883 738 710 775 819
379 389 476 461 489 542 517 483 468 595 559 406 432 336 307 318 750 882 817 864 713 562
356 343 332 241 308 326 223 200 170 355 353 378 328 261 245 191 262 414 706 777 648 550
464 237 106 131 110 220 219 154 171 138 173 99 104 100 62 76 139 444 423 327 479 389
248 122 85 32 12 93 97 78 114 101 21 19 8 4 17 198 521 322 256 209 187 156
183 105 6 15 10 22 34 29 30 17 23 11 3 11 17 106 385 134 100 61 72 82
196 60 37 20 1 0 1 16 13 10 6 5 0 1 0 25 162 123 67 8 7 12

GFSNIL_con_mucape_114.txt.gz
CAPE
395 320 140 168 64 143 278 284 354 570 850 968 1057 814 1299 950 1345 1047 863 819 1245 866
466 358 325 168 171 149 211 179 386 605 646 856 805 1055 1112 1065 1148 1022 921 1075 1232 1195
417 386 337 211 182 268 198 0 382 443 514 633 881 1041 962 1057 817 838 991 1072 783 834
415 445 419 397 131 25 14 0 0 119 480 692 996 709 949 950 675 735 920 931 886 678
414 444 421 468 214 172 31 52 159 164 544 606 909 824 765 788 1320 753 614 544 756 764
391 541 416 375 222 233 222 168 278 194 257 398 853 792 759 793 824 988 837 874 836 765
534 609 465 417 437 395 227 310 330 509 554 568 523 492 563 554 1080 748 682 842 865 855
508 441 549 479 365 441 387 375 646 614 723 380 313 314 294 460 678 911 700 512 645 634
364 455 423 311 353 319 296 298 424 393 560 555 333 313 176 258 474 750 675 411 421 521
235 197 166 266 219 300 217 140 219 198 223 279 285 253 219 181 167 594 662 517 442 353
189 163 131 160 214 275 177 175 136 70 100 85 174 157 88 46 22 194 371 402 261 212
180 128 94 63 106 106 146 104 81 78 66 75 49 27 25 326 173 161 197 191 152 119
151 110 105 101 87 68 71 85 80 54 29 24 27 43 25 126 107 113 123 128 128 95
170 113 96 60 45 76 56 63 51 23 8 5 12 8 8 80 97 88 78 64 49 42

GFSNIL_con_mucape_117.txt.gz
CAPE
259 232 233 222 185 336 271 250 356 491 639 806 1008 657 989 891 1156 877 807 766 965 401
306 322 352 237 38 31 86 227 294 397 587 754 807 908 932 1094 974 860 771 896 955 800
228 349 316 324 102 115 106 214 115 374 518 404 684 831 987 943 996 670 771 867 767 765
206 323 287 295 105 159 161 115 0 227 373 413 618 817 841 824 874 510 780 843 657 590
245 331 309 282 262 176 23 31 0 0 73 462 746 800 619 746 841 837 487 572 619 585
481 366 410 378 371 255 6 22 50 124 90 417 491 744 741 538 481 517 678 563 624 627
571 483 410 425 333 350 159 177 109 201 238 210 380 586 545 476 543 485 539 508 674 824
591 565 387 486 489 334 293 284 167 235 405 528 383 335 290 232 209 192 468 456 532 415
584 653 554 503 484 447 323 237 251 271 494 514 352 252 228 159 150 295 587 484 382 357
521 513 333 293 346 283 218 134 139 131 221 272 303 332 190 186 172 175 298 347 335 302
264 252 212 175 234 202 156 128 156 80 87 84 29 65 86 87 108 84 268 333 308 298
169 195 198 141 133 131 170 163 154 108 41 64 67 58 45 237 71 77 138 132 109 144
166 168 150 126 140 80 90 132 146 126 75 40 51 57 50 86 74 73 15 1 5 60
201 146 112 98 85 80 151 190 173 142 87 67 57 47 29 62 63 55 16 16 13 33

GFSNIL_con_mucape_123.txt.gz
CAPE
1338 1110 1139 1342 1149 1100 1135 1215 1514 1562 1718 1687 1907 2001 2240 1933 1793 1712 1795 2049 2023 1236
1201 1213 1030 1220 1141 878 1013 948 1002 1169 1384 1693 1720 1857 1906 1515 1928 1945 1970 1626 1788 1815
1000 1154 1153 1149 1051 959 870 779 835 887 1079 1381 1657 1798 1986 2131 1911 2060 1794 1377 1925 2238
875 965 982 984 1054 1156 900 610 514 780 855 1223 1374 1540 1827 2088 1915 1986 1827 1689 1899 1928
699 804 784 940 942 1072 1038 808 760 380 447 542 997 1273 1564 1611 1311 1705 1649 1583 1768 1817
535 638 653 811 892 878 851 714 409 129 225 310 297 912 1430 1738 1496 1248 1522 1650 1624 1502
586 571 618 737 910 887 805 704 399 266 107 255 701 693 1002 1423 1374 1468 1440 1541 1482 1476
1001 811 829 980 1062 1044 978 771 732 371 219 524 990 658 860 1049 1257 1499 1432 1206 1355 1426
1112 1030 1126 1228 1340 1365 1276 1267 1003 720 559 585 472 179 142 67 472 705 982 521 791 1163
802 779 418 588 1381 1010 1453 1495 1268 1003 900 623 126 203 149 96 13 317 577 950 1243 1093
564 430 273 205 200 160 997 525 1246 819 293 60 59 50 57 93 47 34 235 218 692 755
115 99 102 110 120 118 231 181 146 122 211 123 92 66 64 21 26 0 2 28 82 122
59 101 90 79 51 46 143 122 77 50 46 64 68 99 82 23 42 36 2 66 31 38
209 253 179 82 77 108 128 30 50 49 43 16 62 59 18 37 67 7 38 34 25 26

GFSNIL_con_mucape_126.txt.gz
CAPE
1591 1218 1094 1465 851 1308 1005 1092 1308 1699 1637 1568 1640 1692 1893 1858 1755 1611 1697 2073 2313 1419
1519 1588 1213 1278 1659 1274 1604 1324 1789 1845 1850 1662 1648 1773 1681 1798 1694 1837 1853 1345 1760 1805
1158 1446 1493 1889 1355 1520 1521 1637 1641 1498 1552 1688 1743 1835 2062 1524 1637 1851 1654 1165 1076 1820
842 930 1469 1546 1828 1599 1696 1688 1698 1476 1389 1650 1808 1766 2100 1976 1383 1622 1752 1793 1585 1743
836 979 1006 1387 1294 1415 1666 1788 1724 1437 1475 1548 1564 1712 1914 1745 1233 1384 1440 1461 1500 1574
874 952 895 880 1140 1226 1483 1634 1484 1509 1415 1107 1038 1141 1555 1780 1427 1432 1350 1427 1528 1538
1113 920 807 935 1153 1213 1369 1503 1515 1511 1202 851 677 775 848 1336 1560 1558 1246 1390 1356 1262
1326 1417 1278 1183 1268 1415 1345 1242 1460 1592 1345 1095 1017 1113 1168 1349 1559 1516 1339 1232 1302 927
1346 1273 1143 1598 1687 1751 1783 1649 1618 1558 1430 1266 822 278 321 309 1213 1286 1410 1491 1344 1250
1233 1456 1297 1547 927 1214 1534 1552 1638 1535 1409 1119 1173 334 175 177 328 863 1171 1290 1443 1387
1490 1264 1245 1365 1370 1348 519 366 339 1045 1136 1508 1392 239 59 80 48 172 639 1018 1078 1405
866 936 1103 453 702 977 872 143 143 168 552 563 400 78 78 59 99 59 71 32 49 271
244 241 161 168 149 324 298 221 179 127 74 94 61 51 54 55 65 27 5 14 22 34
382 468 480 443 123 120 147 126 93 75 66 57 32 15 36 13 16 61 41 4 17 9

GFSNIL_con_mucape_129.txt.gz
CAPE
1629 1450 1278 1633 1578 1658 1038 1325 2842 1871 2200 2742 1815 1710 1854 1611 1730 2171 1790 1966 2586 1636
2089 1500 1552 3000 2175 1423 1482 1165 1706 1558 2468 2418 2690 2805 1720 1648 2520 1572 1840 1694 2279 1705
1168 1544 1623 1822 1406 1716 2090 1647 1723 1550 1782 1786 1875 1809 2090 2397 2390 1802 1343 1153 2706 1730
879 1137 1666 1402 1738 1670 1688 1948 1894 1964 2010 1725 1708 1980 2216 2470 2183 1692 2288 1760 1876 2315
861 1015 961 1392 1559 1709 1880 1864 2026 2011 1924 1940 1812 1775 2208 1995 1967 1474 1921 1864 1913 1474
887 838 893 993 1231 1395 1521 1683 1454 1720 2198 2005 1442 1383 1787 1846 1741 1535 1853 1089 1937 1679
1258 1034 907 1212 1435 1153 1533 1606 1591 1551 1747 1790 1501 1145 1182 1205 1375 1637 1560 1935 1797 1688
1975 1856 1667 1848 1408 1427 1530 1456 1578 1486 1510 1491 1465 992 1513 1291 1321 1680 1763 1486 1621 1603
1985 2068 2126 2022 2025 1762 1630 1909 1892 1569 1545 1501 1062 222 323 552 921 1217 1401 1725 1663 1629
2153 2091 2151 1817 1522 1620 1759 2191 2115 1984 1770 1897 1655 535 340 299 473 933 1090 1263 1431 1382
1471 1156 1423 1974 2148 1999 1769 1620 1661 1715 1215 784 724 571 413 219 164 794 888 1006 1165 1534
1672 1740 1639 1596 1539 1505 1642 1785 1379 1225 915 646 322 249 294 55 134 301 367 292 191 86
851 390 253 315 457 463 497 856 1078 935 636 171 62 80 134 31 51 49 94 29 25 30
546 482 497 401 303 84 95 97 100 112 83 46 45 61 62 34 35 14 60 66 18 4